Regional Weather Roundup
Issued by NWS

Home | Current Version | Previous Version | Text Only | Print | Product List | Glossary On
Versions: 1 2 3 4 5 6 7 8 9 10 11 12 13 14 15 16 17 18 19 20 21 22 23 24 25 26 27 28 29 30 31 32 33 34 35 36 37 38 39 40 41 42 43 44 45 46 47 48 49 50
000
ASUS43 KMPX 202010
RWRMN
WEATHER ROUNDUP FOR MINNESOTA
NATIONAL WEATHER SERVICE TWIN CITIES/CHANHASSEN MN
300 PM CDT THU JUL 20 2017


NOTE: "FAIR" INDICATES FEW OR NO CLOUDS BELOW 12,000 FEET WITH NO
SIGNIFICANT WEATHER AND/OR OBSTRUCTIONS TO VISIBILITY. N/A MEANS
CURRENT SKY AND/OR WEATHER CONDITIONS ARE NOT AVAILABLE.

MNZ060>063-068>070-202100-
   Twin Cities Metro

CITY           SKY/WX    TMP DP  RH WIND       PRES   REMARKS
TWIN CITIES    MOSUNNY   85  68  56 VRB7      30.02S
ST PAUL        MOSUNNY   85  69  58 VRB6      30.02R
CRYSTAL        SUNNY     85  64  49 W7        30.01S
BLAINE         PTSUNNY   86  66  51 SW5       30.02S
LAKEVILLE      MOSUNNY   81  72  74 CALM      30.03R
EDEN PRAIRIE   MOSUNNY   86  69  56 MISG      30.02R HX  90
SOUTH ST PAUL  MOSUNNY   84  68  57 W5        30.02R
LAKE ELMO      FAIR      82  68  61 W7        30.03S
$$
MNZ001>005-007-008-013>017-022>024-027-028-202100-
   Northwest Minnesota

CITY           SKY/WX    TMP DP  RH WIND       PRES   REMARKS
BEMIDJI        MOSUNNY   80  56  44 CALM      30.01S
HALLOCK        SUNNY     75  57  53 W5        29.99F
ROSEAU         MOSUNNY   75  59  57 CALM      29.99F
WARROAD        SUNNY     75  59  57 E7        29.99F
THIEF RVR FALL SUNNY     78  57  48 S5        30.01F
CROOKSTON      SUNNY     82  57  42 CALM      29.99F
FOSSTON        SUNNY     82  61  47 CALM      30.02R
DETROIT LAKES  SUNNY     82  55  39 W6        30.04S
MOORHEAD       SUNNY     84  61  45 S3        30.00F
PARK RAPIDS    SUNNY     89  52  28 MISG      30.01S
MAHNOMEN       FAIR      82  58  43 W3        30.01S
$$
MNZ006-009>011-018-025>026-202100-
   North Central Minnesota

CITY           SKY/WX    TMP DP  RH WIND       PRES   REMARKS
BAUDETTE       SUNNY     75  51  43 VRB5      30.00F
FLAG ISLAND    SUNNY     73  52  46 S5        29.99F
INTL FALLS     SUNNY     77  53  43 NW7       29.99F
WASKISH        SUNNY     79  61  53 W6        29.99F
BIG FORK       SUNNY     81  61  50 CALM      30.00F
LONGVILLE      SUNNY     82  55  39 W3        30.02S
GRAND RAPIDS   SUNNY     81  61  50 W5        30.03S
CRANE LAKE     SUNNY     75  55  50 NW5       30.01S
ORR            SUNNY     79  52  38 NW6       29.98S
COOK           MOSUNNY   79  55  44 NW8       30.00S
WALKER         FAIR      82  56  40 SE6       30.01S
$$
MNZ012-019>021-037-202100-
   Northeast Minnesota

CITY           SKY/WX    TMP DP  RH WIND       PRES   REMARKS
DULUTH         MOSUNNY   84  63  49 W10G18    29.99S
ELY            SUNNY     79  50  36 NW8G17    29.99S
HIBBING        SUNNY     80  57  45 W9        30.00F
EVELETH        SUNNY     81  41  24 NW5       30.01S
DULUTH HARBOR  SUNNY     84  64  51 W5        29.96S
TWO HARBORS    SUNNY     86  63  45 NW5       29.94F
SILVER BAY     SUNNY     84  54  34 CALM      29.94S
GRAND MARAIS     N/A     60  56  86 SW9       29.93S
G MARAIS ARPRT SUNNY     75  54  46 NW6       29.99S
$$
MNZ029>031-032-039>041-046>048-054>057-064-202100-
   West Central Minnesota

CITY           SKY/WX    TMP DP  RH WIND       PRES   REMARKS
FERGUS FALLS   SUNNY     82  64  54 S3        30.01S
WHEATON        SUNNY     84  64  51 S9        30.03S
MORRIS         SUNNY     88  64  45 S8        30.02F
ALEXANDRIA     SUNNY     83  68  60 VRB5      30.06S
ELBOW LAKE     FAIR      83  69  63 W9        30.03S HAZE
WADENA         SUNNY     82  63  51 W5        30.03F
GLENWOOD       SUNNY     84  66  54 S7        30.05F
APPLETON       SUNNY     86  66  51 SW7       30.03S
BENSON         SUNNY     84  68  58 SW8       30.05S
ORTONVILLE     SUNNY     84  68  58 S7        30.03F
MADISON        SUNNY     88  66  48 SE6       30.04S HX  90
WILLMAR        FAIR      82  70  65 CALM      30.06S
$$
MNZ033>034-036-042>043-049>051-058-059-202100-
   Central Minnesota

CITY           SKY/WX    TMP DP  RH WIND       PRES   REMARKS
ST CLOUD       SUNNY     86  66  51 VRB3      30.02S
SAUK CENTRE    FAIR      83  65  53 S7        30.04S
PAYNESVILLE    SUNNY     85  66  53 SW8       30.05S
AITKIN         SUNNY     82  63  51 SW7       30.01R
PINE RIVER     SUNNY     84  59  42 CALM      30.04F
BRAINERD       SUNNY     82  62  50 W7        30.03R
STAPLES        SUNNY     82  63  51 SW7       30.03F
LONG PRAIRIE   FAIR      82  63  51 SE5       30.05S
LITTLE FALLS   SUNNY     82  61  47 SW5       30.04R
LITCHFIELD     SUNNY     84  70  61 SW5       30.04S
BUFFALO        SUNNY     82  65  55 SW3       30.04S
MAPLE LAKE     SUNNY     84  71  63 SW3       30.05S
HUTCHINSON     SUNNY     83  71  66 CALM      30.05S
$$
MNZ037-044-045-052-053-202100-
   East Central Minnesota

CITY           SKY/WX    TMP DP  RH WIND       PRES   REMARKS
PRINCETON      SUNNY     88  64  45 W5        30.02S
MORA           SUNNY     82  63  51 SW6       30.03S
CAMBRIDGE      SUNNY     86  66  51 SW3       30.00F
RUSH CITY      SUNNY     84  64  51 W7        30.02R HAZE
MOOSE LAKE     SUNNY     82  61  47 SW3       29.99S
HINCKLEY       FAIR      84  64  51 W6        30.01S
CLOQUET        SUNNY     84  52  32 W5        30.00S
MCGREGOR       SUNNY     82  61  47 W6        30.02S
$$
MNZ071>073-080-081-089-090-097-098-202100-
   Southwest Minnesota

CITY           SKY/WX    TMP DP  RH WIND       PRES   REMARKS
MONTEVIDEO     MOSUNNY   88  72  58 SW6       30.05S HX  94
GRANITE FALLS  MOSUNNY   86  69  56 CALM      30.05F HX  90
CANBY          MOSUNNY   87  63  43 CALM      30.04F
MARSHALL       CLOUDY    83  70  64 SW5       30.04F
REDWOOD FALLS  MOSUNNY   82  68  62 CALM      30.03F
OLIVIA         SUNNY     81  68  65 CALM      30.04S
PIPESTONE      CLOUDY    84  66  54 E7        30.05F
WINDOM         PTSUNNY   84  70  61 NE3       30.05S
WORTHINGTON    PTSUNNY   84  70  62 NE9       30.05F
JACKSON        PTSUNNY   82  70  65 CALM      30.04F
TRACY          CLOUDY    83  71  65 S5        30.05F
SLAYTON        MOSUNNY   82  68  63 CALM      30.07F
$$
MNZ065>067-074>077-082>085-091>093-202100-
   South Central Minnesota

CITY           SKY/WX    TMP DP  RH WIND       PRES   REMARKS
MANKATO        CLOUDY    83  71  67 N6        30.04R
NEW ULM        PTSUNNY   82  70  65 CALM      30.03S
ST JAMES       CLOUDY    82  72  69 CALM      30.04S
FAIRMONT       MOSUNNY   84  75  74 NE6       30.03S HX  92
GLENCOE        CLOUDY    83  73  71 CALM      30.03S
FARIBAULT      CLOUDY    82  72  69 CALM      30.03S
OWATONNA       CLOUDY    82  72  69 CALM      30.03R
WASECA         CLOUDY    79  70  73 CALM      30.04S
ALBERT LEA     CLOUDY    82  72  69 NE3       30.03R
$$
MNZ078>079-086>088-094>096-202100-
   Southeast Minnesota

CITY           SKY/WX    TMP DP  RH WIND       PRES   REMARKS
ROCHESTER      MOSUNNY   83  71  67 NE7       30.03S
RED WING       MOSUNNY   84  63  48 SW5       30.00S
STANTON        PTSUNNY   82  69  65 CALM      30.02R
DODGE CENTER   CLOUDY    81  72  74 N3        30.04S
WINONA         PTSUNNY   81  68  65 NW6       30.00F
AUSTIN         CLOUDY    84  72  65 NE3       30.02R
PRESTON        SUNNY     83  70  65 NE5       30.03S
$$
ABBREVIATIONS USED IN REMARKS
   TC - TEMPERATURES IN CELSIUS
  WCI - WIND CHILL INDEX
   HX - HEAT INDEX
  VSB - VISIBILITY
$$




USA.gov is the U.S. government's official web portal to all federal, state and local government web resources and services.